Regional Weather Roundup
Issued by NWS

Home | Current Version | Previous Version | Graphics & Text | Print | Product List | Glossary On
Versions: 1 2 3 4 5 6 7 8 9 10 11 12 13 14 15 16 17 18 19 20 21 22 23 24 25 26 27 28 29 30 31 32 33 34 35 36 37 38 39 40 41 42 43 44 45 46 47 48 49 50
000
ASUS43 KLMK 012310
RWRKY
KENTUCKY REGIONAL WEATHER ROUNDUP
NATIONAL WEATHER SERVICE LOUISVILLE KY
700 PM EDT WED OCT 01 2014

NOTE "FAIR" INDICATES FEW OR NO CLOUDS BELOW 12,000 FEET
WITH NO SIGNIFICANT WEATHER AND/OR OBSTRUCTIONS TO VISIBILITY.

KYZ001>023-026-027-061>063-070>075-020000-
WESTERN AND SOUTH CENTRAL KENTUCKY

CITY           SKY/WX    TMP DP  RH WIND       PRES   REMARKS
PADUCAH        PTCLDY    83  60  45 S5        29.87R
HENDERSON      NOT AVBL
OWENSBORO      PTCLDY    84  56  38 S7        29.91R
HOPKINSVILLE   CLEAR     83  56  39 S5        29.91R
BOWLING GREEN  CLEAR     79  56  45 SE6       29.93S
GLASGOW        CLEAR     81  50  33 CALM      29.94S
$$

KYZ024-025-028>034-038-045-046-053-020000-
NORTH CENTRAL KENTUCKY

CITY           SKY/WX    TMP DP  RH WIND       PRES   REMARKS
LOUISVILLE/SDF PTCLDY    81  55  40 E5        29.93S
LOUISVILLE/LOU CLEAR     81  54  39 CALM      29.94S
FORT KNOX      PTCLDY    78  59  50 E6        29.93S
$$

KYZ035>037-039>044-047>052-055>060-089>105-020000-
NORTHEAST KENTUCKY

CITY           SKY/WX    TMP DP  RH WIND       PRES   REMARKS
LEXINGTON      CLEAR     77  58  51 NE5       29.98S
COVINGTON      PTCLDY    74  53  48 E8        29.98S
FRANKFORT      CLEAR     77  57  50 NE3       29.96S
$$

KYZ054-064>069-076>088-106>120-020000-
SOUTHEAST KENTUCKY

CITY           SKY/WX    TMP DP  RH WIND       PRES   REMARKS
JACKSON        MOCLDY    73  59  61 CALM      30.02R
LONDON         CLEAR     79  54  41 W3        30.00S
SOMERSET       CLEAR     77  54  44 CALM      29.99S
MIDDLESBORO    CLEAR     72  61  68 CALM      30.01S
MONTICELLO     CLEAR     77  60  55 CALM      30.00R
$$




USA.gov is the U.S. government's official web portal to all federal, state and local government web resources and services.